Location: Newark
(45.5167°N, 11.1667°E)
Time: 00:04:00
(UTC+00:00)

Explorer 7 - Pass Details

Date: 23 December 2019
Orbit: 485 x 679 km, 50.3° (Epoch: 19 January)

Event Time Altitude Azimuth Distance (km) Brightness Sun altitude
Rises 09:12:30 0° 198° (SSW) 2,772 11.1 15.7°
Reaches altitude 10° 09:15:09 10° 182° (S) 1,917 10.8 15.9°
Maximum altitude 09:18:24 21° 134° (SE) 1,404 10.7 16.2°
Drops below altitude 10° 09:21:49 10° 86° (E) 2,015 10.1 16.5°
Sets 09:24:41 0° 70° (ENE) 2,961 10.6 16.7°
